Theta_e
351 353 353 353 354 353 352 353 352 353 353 353 354 356 357 358 357 358 358 358 357 355 353 350 347 343 340 338 335 333 333 333 334 333 333 333 331 331 331 333 337 339 338 335 333 334 334 335 338 340 340 341 341 340 340 341 341 342 344 345 344 344 344
351 353 353 354 353 352 351 351 351 352 353 352 354 355 358 358 358 358 358 358 358 356 354 351 348 344 339 336 335 334 334 333 333 334 333 332 332 331 330 331 333 334 336 336 335 336 336 336 336 337 339 341 341 341 341 341 341 341 343 344 343 343 343
352 351 353 353 354 353 351 351 351 352 353 352 353 355 357 358 359 359 359 359 358 357 355 352 349 347 341 338 335 334 334 334 333 333 333 332 331 331 331 330 330 332 334 337 338 338 338 337 337 337 338 339 339 340 340 341 341 341 341 342 343 342 342
350 350 351 351 353 352 352 352 351 352 353 352 352 353 356 358 359 360 360 360 360 358 357 353 350 348 345 342 339 336 334 333 333 332 332 331 331 330 331 331 330 331 333 334 336 338 340 340 338 336 337 337 336 337 337 339 340 340 340 341 342 341 341
349 349 350 350 351 351 351 351 353 353 353 352 353 353 354 356 358 360 361 361 361 360 357 355 352 349 347 345 343 339 336 333 332 331 332 331 331 331 331 331 330 330 331 333 334 338 340 341 339 338 337 335 336 335 336 337 338 340 341 342 343 342 341
348 348 350 349 349 350 350 351 352 353 353 353 354 354 356 356 358 359 360 361 361 360 359 357 355 352 350 347 344 341 338 336 334 332 332 332 331 331 330 329 330 330 330 331 334 335 338 340 341 339 337 336 337 336 336 335 336 337 339 341 342 343 342
348 348 349 349 349 351 350 351 352 352 353 354 354 355 356 355 357 357 359 360 361 361 360 359 357 354 351 348 343 340 338 337 335 334 333 333 332 331 329 329 330 330 331 331 332 334 336 339 340 341 340 339 337 336 336 336 335 335 336 338 340 342 342
349 348 348 349 349 350 351 351 350 351 352 352 353 355 355 356 357 358 359 361 361 361 361 360 358 355 353 350 346 341 338 335 334 334 334 334 333 331 329 329 329 330 331 332 332 332 334 337 340 342 344 342 340 338 337 336 336 336 336 336 337 339 341
348 348 347 347 347 349 351 351 352 352 351 352 353 355 356 357 358 360 360 361 361 361 361 360 359 356 353 352 348 344 340 338 336 335 335 335 334 332 330 330 330 331 331 332 332 332 332 335 339 341 344 345 344 342 339 336 336 336 336 335 336 337 339
347 348 347 346 346 348 349 350 352 353 353 354 355 357 359 360 360 361 361 361 361 361 361 360 359 357 355 352 349 347 344 342 340 338 337 337 335 333 332 332 331 331 332 332 332 333 334 334 338 342 344 344 345 345 342 339 337 336 336 336 336 336 338
345 347 347 347 346 348 349 350 350 351 352 354 355 359 361 361 362 362 361 362 362 362 361 360 360 359 357 354 350 349 346 345 342 340 339 337 335 334 333 333 333 333 332 333 333 334 335 336 338 341 344 344 344 344 342 341 339 337 336 336 336 336 337
345 346 347 347 347 349 349 350 350 351 352 353 356 360 363 363 363 363 363 362 362 362 362 362 361 361 360 357 354 351 348 345 343 341 339 337 336 334 334 334 334 334 334 334 334 335 336 338 339 341 342 343 343 343 342 341 340 339 337 337 337 337 338
345 345 347 347 348 349 350 351 353 354 357 359 361 363 364 364 364 363 363 363 363 363 363 363 364 363 362 360 358 354 350 345 342 340 339 338 336 335 334 335 335 335 335 335 335 336 337 338 339 340 340 340 342 343 343 342 341 341 340 340 340 340 339
347 344 344 346 347 349 351 352 354 358 360 362 363 364 364 365 364 364 363 363 363 363 364 365 365 365 364 363 360 357 352 347 342 339 338 338 337 337 336 335 336 335 336 336 336 336 336 337 338 338 339 340 341 343 344 344 343 343 342 343 343 343 342
347 344 343 345 346 349 351 354 356 358 360 362 363 364 365 365 366 365 364 364 364 363 364 366 366 366 365 364 362 360 355 350 344 341 339 339 339 338 337 337 336 336 337 337 337 335 336 337 338 339 340 341 342 344 345 345 345 344 343 343 343 343 343
347 349 348 346 347 348 348 350 352 352 358 362 364 364 365 365 365 366 365 364 364 364 365 365 367 367 366 365 364 362 359 354 349 344 342 340 339 338 337 337 337 337 337 337 337 336 337 339 341 342 341 342 343 345 346 345 345 345 344 343 343 342 342
351 355 355 352 349 349 350 352 354 355 359 362 363 364 364 365 365 365 365 365 365 365 364 365 367 367 367 366 365 363 362 359 355 349 344 341 339 338 337 338 339 340 339 340 339 338 339 340 342 343 345 345 345 345 346 346 345 345 345 345 345 344 344
347 350 355 357 355 352 351 353 356 359 363 363 364 364 364 364 366 365 366 366 365 366 365 366 366 367 367 367 366 365 364 362 359 355 350 344 341 338 336 337 339 341 342 343 342 341 341 341 342 343 345 348 348 348 347 346 345 346 347 347 347 346 345
340 343 346 351 355 357 356 356 356 359 363 363 362 363 363 364 365 365 365 365 366 366 366 366 367 366 367 367 366 366 365 364 362 360 356 351 345 341 338 338 340 342 344 343 343 343 343 342 342 342 345 348 350 349 348 346 346 347 348 349 349 348 347
339 343 341 341 344 348 351 354 356 357 361 363 364 363 363 363 362 363 364 365 365 366 366 366 366 367 367 367 367 367 366 365 363 362 360 357 352 348 344 342 340 341 342 343 344 345 345 344 344 344 345 348 349 349 348 347 346 347 349 349 350 350 350
338 338 338 339 338 338 341 343 345 346 349 351 356 361 362 363 363 362 363 363 364 365 365 366 365 366 366 366 366 366 366 365 365 363 362 360 358 355 350 347 344 342 343 344 345 343 343 343 344 343 343 346 348 350 350 349 349 349 350 350 352 353 355
351 349 351 352 349 347 347 341 337 341 343 344 346 350 352 355 357 360 361 362 364 364 364 365 365 365 365 365 366 366 366 366 364 363 363 361 361 359 356 351 349 345 345 345 344 343 343 343 343 344 344 345 348 350 351 351 351 352 353 354 355 357 359
360 360 361 361 359 358 357 352 350 353 353 353 352 351 352 351 349 351 354 357 361 364 363 363 364 364 363 365 365 365 365 366 365 364 363 362 362 361 359 356 353 350 349 348 346 345 344 343 342 343 344 346 348 349 350 351 353 354 355 357 360 361 362
358 357 355 352 351 353 351 348 349 353 353 352 349 349 353 356 353 351 352 352 354 358 361 363 362 363 363 363 363 364 365 365 365 364 364 364 362 362 362 359 357 355 354 351 350 348 345 344 344 344 346 348 349 349 350 352 354 355 356 358 361 363 364
356 356 352 347 347 351 351 347 342 339 340 340 336 334 341 353 358 358 356 355 353 352 355 357 359 360 362 363 361 363 364 364 365 365 365 364 364 363 363 361 360 359 357 355 354 352 350 349 349 349 349 349 351 352 352 354 355 356 358 359 361 363 364
353 352 352 350 349 351 354 354 346 337 336 343 343 338 336 342 351 357 359 359 358 356 352 351 352 355 358 362 362 361 362 363 365 366 365 365 364 363 363 362 362 361 361 360 358 355 354 354 353 353 353 353 354 355 356 357 358 359 360 361 361 362 362
353 354 356 357 354 349 347 348 344 340 344 352 355 352 347 343 342 345 353 357 359 361 358 354 352 351 352 356 360 360 361 361 363 365 365 365 365 364 363 364 363 364 364 363 362 360 358 358 357 356 357 356 357 357 358 358 359 359 361 361 361 362 362
356 356 357 359 357 353 351 351 347 345 349 353 360 364 361 356 348 341 342 348 354 360 362 359 358 355 353 354 357 359 361 361 362 364 365 365 365 364 364 364 364 366 365 365 364 363 362 361 361 360 359 360 360 360 360 360 360 361 361 362 362 363 363
353 353 354 357 356 352 354 357 355 352 351 351 361 369 366 362 360 354 345 345 349 355 361 363 361 359 357 355 356 358 360 361 362 364 364 365 365 364 364 364 364 366 366 366 365 365 364 363 362 362 362 361 362 362 362 363 364 364 365 365 365 365 365
351 352 353 356 356 353 354 358 357 358 356 350 354 366 367 363 364 363 358 355 353 356 362 363 362 361 361 359 358 359 361 361 362 363 364 365 365 365 365 365 365 366 366 367 366 366 365 364 364 364 364 363 363 364 364 364 365 366 366 367 366 366 366
350 352 352 353 355 353 354 357 357 358 359 353 353 364 368 365 365 365 365 363 361 360 363 364 363 363 362 362 361 360 361 362 362 363 364 365 365 366 366 366 366 367 368 368 367 366 366 366 366 366 366 365 364 364 365 365 366 366 366 366 366 365 365
348 350 350 352 353 352 352 355 356 357 358 357 357 363 366 365 367 367 367 367 366 364 363 364 364 364 364 363 363 362 362 363 364 364 365 365 366 367 367 367 368 368 368 368 368 367 368 367 367 368 368 367 365 364 365 365 365 365 364 364 364 364 363
348 349 348 350 352 350 350 353 356 356 356 356 358 361 362 363 365 366 368 369 368 366 365 365 364 364 364 365 365 363 363 363 365 367 368 368 368 368 367 368 368 368 368 368 368 368 368 367 368 369 368 367 367 365 365 365 365 364 364 363 363 363 363
347 349 349 349 350 349 350 354 355 355 354 354 354 357 359 361 362 363 365 367 366 366 366 366 365 365 365 366 365 365 364 365 366 368 369 369 368 368 368 368 368 368 368 368 368 368 368 368 368 368 367 367 366 365 365 364 364 364 364 364 363 363 363
344 346 348 350 350 348 349 352 354 354 354 352 350 351 355 358 359 361 362 363 363 363 365 366 366 366 365 365 365 365 366 366 367 367 368 369 368 368 369 369 369 368 367 367 367 368 367 367 366 366 366 366 365 365 365 365 364 364 363 363 362 362 362
343 345 348 350 350 349 349 351 353 353 352 350 349 350 353 354 356 360 362 364 364 363 363 365 366 366 366 367 366 366 366 366 367 367 368 368 368 367 368 369 369 369 368 368 367 366 365 365 364 364 365 365 364 364 365 365 364 363 362 362 361 360 359
344 347 350 350 350 349 349 350 351 351 350 349 348 350 351 352 353 356 360 363 365 365 365 365 365 366 368 368 367 367 366 365 366 366 367 367 367 367 367 368 367 367 367 367 366 365 365 365 365 364 364 364 363 364 363 363 362 361 359 358 356 353 350
343 346 348 350 350 349 349 350 351 350 349 348 348 349 350 350 350 353 356 360 364 365 366 367 366 367 368 366 366 366 366 365 366 366 365 365 365 364 364 365 365 364 364 364 365 365 364 364 364 364 364 363 363 362 359 357 355 353 351 348 344 341 338
Wind_Speed
42 43 45 47 47 47 48 50 51 51 51 49 48 48 46 46 46 47 47 48 49 50 51 51 50 49 46 44 42 40 39 38 37 36 34 33 32 32 32 31 31 30 30 28 26 24 22 19 18 18 17 17 17 17 17 17 17 17 16 16 16 16 14
44 45 45 45 46 47 48 49 50 51 51 50 49 49 47 47 47 48 48 48 50 50 51 52 52 50 48 45 43 42 41 40 39 37 36 34 33 33 33 32 31 31 30 29 27 26 24 21 20 19 18 18 17 18 18 18 18 18 18 18 18 17 16
43 42 43 45 46 46 47 48 49 50 51 51 51 51 50 50 49 49 49 48 49 50 50 51 52 51 49 47 45 44 42 41 40 39 38 36 35 34 34 33 32 31 30 29 29 27 26 24 21 20 20 19 18 18 19 19 19 19 19 20 20 19 18
43 43 45 46 45 45 45 46 49 50 51 52 53 54 53 51 49 47 47 48 48 49 51 52 52 52 51 49 48 46 44 42 41 40 39 37 36 35 35 34 33 32 31 30 29 28 27 25 24 22 21 21 20 19 19 19 20 20 20 21 22 21 20
42 44 45 44 44 45 45 46 48 49 50 51 52 53 52 50 48 47 47 47 48 49 50 51 52 52 52 51 50 48 46 44 42 41 40 39 38 37 36 36 34 34 33 31 29 29 28 27 25 24 23 22 21 20 20 19 20 21 21 21 22 23 22
42 42 43 44 44 46 47 47 47 48 50 51 50 50 49 49 48 48 48 48 48 48 48 50 51 52 52 51 50 49 47 46 44 43 42 41 40 38 37 36 35 35 34 32 31 30 29 28 27 25 24 24 23 22 22 21 21 21 22 22 23 23 24
45 44 44 46 47 47 47 47 47 49 49 49 48 47 47 49 49 49 49 49 49 48 48 50 51 52 52 52 50 49 48 47 46 45 44 43 41 40 38 37 36 36 35 34 33 31 30 29 28 27 26 25 25 24 24 23 23 23 23 24 24 24 24
46 45 45 46 47 47 47 47 47 48 48 47 45 46 47 49 49 49 50 50 50 49 49 50 51 51 53 52 51 50 48 47 46 46 45 44 43 42 40 39 38 36 36 35 34 33 32 31 30 29 28 28 27 26 26 25 25 25 25 25 26 26 26
43 45 46 47 47 47 46 47 47 46 47 46 44 46 48 49 49 50 51 50 50 50 50 50 51 51 52 52 52 51 49 48 47 46 46 45 45 43 41 40 38 37 37 36 36 35 34 33 32 31 30 30 29 28 28 27 27 27 27 27 27 28 28
40 44 47 46 44 44 44 46 47 46 46 46 44 45 47 49 49 49 49 50 50 50 51 51 51 51 51 52 52 51 50 49 48 47 47 46 46 44 42 41 40 39 38 37 37 36 35 34 33 32 32 32 31 31 31 30 29 29 29 29 29 29 29
43 44 48 47 42 41 41 42 45 46 46 47 46 46 47 49 48 48 48 49 49 49 50 51 51 50 51 51 52 51 51 50 49 48 48 47 46 44 43 42 41 40 39 38 38 37 36 36 35 33 33 33 33 33 33 33 32 31 30 30 30 30 30
44 44 46 47 44 42 42 42 43 45 45 46 47 47 47 48 48 47 46 46 46 47 47 48 49 49 50 50 51 51 51 50 50 49 48 47 46 45 44 43 42 41 40 39 38 38 37 36 36 35 34 34 34 35 35 34 34 33 33 32 32 32 32
40 43 45 47 47 46 45 44 44 44 44 45 47 47 46 47 46 45 44 44 44 44 44 44 46 47 48 49 50 51 51 51 50 49 49 48 46 45 44 43 42 42 41 40 39 38 38 37 37 36 36 35 35 35 35 35 35 36 35 34 34 34 34
38 40 42 43 46 48 47 47 46 45 45 46 47 47 45 45 45 44 44 44 44 43 42 42 43 45 46 48 49 51 52 51 49 48 48 47 46 45 45 44 43 42 41 40 40 39 39 39 38 38 37 37 36 36 36 37 37 37 37 36 36 36 36
37 33 29 30 40 47 47 48 48 47 47 47 47 46 45 44 45 45 44 44 44 43 42 42 42 44 45 46 48 50 51 50 49 48 48 47 47 46 45 44 44 43 42 42 41 40 40 39 39 39 39 38 38 37 37 38 39 39 39 38 37 37 38
29 25 22 25 35 42 44 47 48 48 47 47 47 47 45 44 44 45 45 44 44 43 43 42 42 43 44 46 47 48 48 48 48 48 48 48 48 46 45 44 44 43 43 43 42 41 40 39 39 39 40 40 39 39 39 40 40 41 40 40 39 38 38
24 26 25 25 31 35 37 40 43 44 45 46 47 46 44 43 43 44 44 44 44 44 43 43 43 44 45 46 46 46 46 47 47 48 48 48 47 47 45 45 44 44 44 43 42 42 41 40 39 39 40 39 39 39 40 40 40 40 41 41 40 39 39
24 28 28 26 28 29 30 33 36 37 39 42 43 44 42 41 40 42 43 43 43 43 43 43 44 44 45 45 45 45 46 46 45 46 47 48 47 47 45 45 45 45 44 44 43 42 41 41 40 40 39 39 39 40 40 40 39 39 39 39 39 39 40
19 25 27 27 26 25 25 28 30 32 33 36 39 40 40 39 38 38 40 41 41 42 42 44 44 44 44 44 45 45 45 45 44 44 45 46 47 46 46 46 46 45 45 45 44 43 42 42 41 40 40 40 40 40 40 39 39 38 38 37 37 38 39
15 18 22 24 24 22 22 23 24 26 27 29 32 34 35 36 35 34 35 37 39 40 41 43 44 44 44 44 44 45 44 44 44 44 44 44 44 46 46 47 46 45 45 45 44 44 44 43 42 41 41 41 41 41 41 40 40 39 38 37 36 36 37
13 11 14 17 18 18 19 20 21 22 21 22 24 26 29 31 32 32 32 33 36 39 40 41 42 44 44 43 44 45 45 45 44 44 43 43 43 44 46 46 46 45 45 45 45 45 44 44 44 43 42 42 42 42 42 42 41 40 40 39 38 37 37
21 18 17 17 17 15 16 18 18 17 16 16 16 18 21 23 27 29 30 31 33 36 38 40 41 42 43 43 43 44 45 46 45 44 43 42 42 43 44 45 46 45 44 45 45 45 45 45 44 44 44 43 43 44 44 44 43 43 42 41 39 37 36
28 26 25 24 22 20 19 19 18 17 16 16 16 16 17 19 21 24 26 29 33 34 35 37 40 41 43 43 42 41 43 45 45 44 43 42 43 43 43 44 44 44 44 44 45 45 45 45 45 45 44 44 44 45 46 45 44 44 43 42 39 37 37
24 23 22 20 19 19 17 17 17 16 17 17 16 16 17 18 21 23 23 25 28 32 34 36 38 39 41 43 42 40 40 42 44 45 44 43 43 43 42 42 42 43 43 44 45 45 45 45 45 45 45 45 46 46 46 46 45 44 43 41 38 35 35
21 18 17 17 16 15 12 11 10 10 11 11 12 15 18 20 20 22 25 25 25 28 31 35 38 39 40 41 41 40 38 39 41 44 44 43 43 42 41 41 41 41 41 43 44 44 44 44 44 45 45 45 45 45 45 45 44 43 43 41 39 36 34
19 17 16 15 14 13 10 7 7 6 5 4 3 8 14 20 21 21 24 25 26 27 29 30 32 35 37 39 40 40 39 37 38 41 42 43 42 40 40 39 39 39 39 40 41 42 42 42 43 43 43 43 43 43 43 43 42 41 40 39 38 38 37
19 19 16 13 12 12 10 9 11 9 7 5 2 1 5 12 19 22 22 21 23 27 29 28 27 27 31 35 38 39 38 36 36 38 39 41 40 39 38 38 38 37 37 38 39 40 40 40 41 41 41 40 40 40 40 40 40 39 39 37 37 37 37
17 18 17 14 11 11 12 12 11 7 4 2 2 2 1 5 11 17 21 21 22 23 24 26 27 25 26 29 33 36 37 35 34 35 36 38 38 37 37 37 36 35 35 36 37 38 38 39 39 39 39 38 37 36 35 34 33 32 31 30 30 30 31
16 15 15 13 11 10 10 11 10 7 4 2 2 3 2 4 6 9 14 18 21 21 19 20 24 25 24 25 28 32 34 34 32 33 34 36 36 35 35 34 34 33 33 34 35 35 36 37 36 36 36 36 34 32 30 29 27 25 24 23 23 24 24
18 15 13 11 10 8 7 7 8 7 6 3 3 4 3 4 6 6 8 12 16 17 15 16 19 22 22 22 24 27 30 31 30 30 31 33 33 33 32 32 31 31 32 32 32 33 34 34 34 33 32 32 32 29 26 24 22 21 22 23 23 23 23
16 14 11 10 10 6 3 4 6 4 4 2 2 5 4 4 6 7 9 11 13 14 14 14 16 18 18 19 20 23 26 27 27 28 29 29 30 30 30 30 29 29 30 30 31 31 31 31 30 29 27 27 27 27 25 22 20 21 23 24 24 24 23
15 13 11 10 11 9 3 2 4 5 5 2 2 5 3 3 7 9 10 11 12 14 16 16 16 16 16 17 18 20 23 25 25 25 25 25 26 27 27 28 28 27 27 29 29 29 29 29 28 26 25 24 23 23 23 22 23 24 25 26 25 25 24
14 14 13 11 12 11 6 2 4 5 6 5 5 5 3 1 4 7 8 10 11 12 14 15 16 16 16 16 17 18 21 23 23 22 22 22 23 24 24 25 26 26 26 27 28 28 27 27 26 24 23 23 21 20 22 24 25 25 25 25 24 24 22
12 12 13 12 12 11 7 3 4 6 6 7 6 7 5 2 2 5 7 9 12 13 12 13 14 15 15 16 18 19 20 22 22 21 21 22 22 22 22 23 23 24 25 26 27 27 26 26 25 23 21 21 21 22 24 25 25 24 23 22 21 21 20
13 12 11 11 11 11 8 5 4 5 5 5 6 6 6 4 4 5 6 9 12 12 11 12 13 14 15 16 17 19 20 21 21 22 23 24 24 23 22 23 22 22 23 24 24 25 24 24 24 24 22 21 21 22 23 24 23 22 20 18 17 17 17
14 12 10 10 11 10 8 6 6 6 5 6 6 3 3 5 6 5 5 7 10 11 11 13 14 15 16 16 17 19 21 21 22 23 23 24 24 23 23 23 22 21 22 22 22 21 22 22 23 23 23 22 20 19 19 20 20 18 16 14 14 14 15
14 12 11 10 10 10 8 5 5 6 6 6 5 3 3 4 6 5 5 6 9 10 12 14 15 15 16 17 18 19 21 22 23 23 23 24 23 23 24 25 23 21 21 21 20 19 19 20 21 22 22 22 21 19 17 16 15 13 12 12 12 14 15
13 11 10 10 10 9 7 4 4 5 5 3 1 1 1 2 4 6 6 7 9 11 12 14 15 16 17 18 18 18 19 20 20 20 22 24 23 22 23 25 24 21 20 20 19 18 17 17 17 18 17 16 16 14 13 12 11 11 12 12 12 13 14
Wind_Direction
179 183 185 188 189 189 192 194 194 195 195 196 197 197 199 201 202 204 206 208 209 209 209 208 209 211 214 217 219 219 219 218 217 217 217 216 217 219 220 219 216 215 218 223 227 228 226 222 220 222 221 218 218 220 220 220 220 219 218 217 217 223 226
180 183 184 185 187 190 194 197 196 196 197 198 199 199 200 202 203 205 207 208 210 211 210 210 210 212 215 217 219 220 219 219 218 218 218 218 219 220 222 223 222 220 220 223 226 228 229 226 223 224 225 223 220 221 222 222 220 218 218 220 222 223 225
181 181 182 184 187 190 194 197 197 198 197 198 200 201 202 204 205 206 207 209 211 211 212 211 212 213 215 217 218 219 220 220 219 219 219 220 219 220 222 225 226 225 224 224 224 226 227 228 227 225 226 228 226 226 226 224 223 221 218 219 226 229 229
178 179 181 184 187 190 192 195 197 197 198 199 201 203 204 204 205 206 208 210 211 212 212 213 214 215 216 216 217 218 220 220 221 220 221 221 220 221 222 224 226 227 227 226 226 225 225 227 228 228 229 231 231 231 230 227 224 224 221 219 225 230 233
175 178 180 183 186 189 191 194 196 196 198 200 203 204 203 204 205 207 209 211 213 215 216 216 216 216 216 217 217 218 220 221 222 222 222 222 222 222 222 224 226 227 228 228 227 227 226 225 227 228 229 231 232 232 232 232 228 225 224 223 224 228 232
176 177 179 181 185 189 191 193 196 198 198 200 202 203 202 203 205 207 209 211 214 216 217 217 217 216 216 218 219 220 221 222 223 223 223 223 223 223 223 225 226 227 229 229 229 229 229 228 227 227 229 231 233 233 233 234 234 230 228 227 227 229 231
177 178 179 181 186 190 192 194 197 199 200 199 199 201 202 203 206 207 209 212 214 216 217 217 218 217 217 219 220 222 223 223 224 224 224 224 224 224 225 225 226 227 229 230 231 231 230 230 229 228 229 231 233 236 235 235 236 236 234 231 230 232 233
177 179 180 183 188 191 193 195 197 199 199 198 197 200 202 204 205 207 209 212 214 216 217 218 218 218 219 219 220 222 224 225 225 224 224 225 225 226 226 226 226 227 228 230 232 232 232 231 231 230 230 231 233 236 238 239 239 239 238 236 234 234 235
175 180 183 186 189 192 194 195 197 198 198 196 197 200 202 203 204 207 209 212 213 215 217 219 219 220 220 220 221 222 224 225 226 225 225 225 225 227 227 227 227 227 228 230 231 233 234 233 231 231 231 232 233 234 238 241 242 242 242 241 238 237 238
173 180 186 188 190 192 194 194 194 196 197 195 195 199 201 202 204 207 209 211 213 215 217 219 219 220 220 220 221 222 223 224 225 226 225 226 226 228 228 228 228 228 229 230 231 232 234 235 233 231 231 233 234 234 236 239 242 244 244 245 243 242 241
173 179 185 189 191 192 193 192 192 195 196 196 196 199 202 203 204 206 209 211 213 215 217 218 219 219 219 221 222 222 223 223 225 226 226 227 227 229 229 229 229 230 229 230 231 232 234 235 235 232 231 233 235 236 238 239 241 243 245 246 246 245 244
176 176 179 186 189 191 192 191 192 195 197 197 198 200 202 203 204 206 208 211 213 215 217 218 218 218 219 220 221 222 223 224 225 226 227 228 228 229 230 229 230 231 231 230 231 232 233 234 235 235 234 234 236 237 239 241 242 244 246 247 247 246 246
180 176 175 181 186 188 189 189 191 195 197 198 199 200 203 204 204 205 206 209 211 214 217 218 218 219 220 221 221 222 223 225 226 227 228 229 229 229 230 230 230 230 231 232 232 232 233 235 236 237 238 238 238 238 239 241 243 245 246 246 246 246 246
184 184 179 178 180 183 185 187 190 194 198 200 200 200 203 204 204 204 205 208 210 212 215 217 218 219 220 221 222 222 224 226 227 228 229 230 230 229 230 230 230 230 231 232 233 233 235 236 237 239 240 241 241 241 240 241 243 243 244 244 245 246 246
180 184 181 176 176 179 182 186 189 193 197 199 199 199 201 202 203 203 205 207 209 211 214 216 218 219 220 221 222 223 225 226 226 227 228 229 229 230 230 230 230 230 231 232 234 236 237 237 237 238 240 242 242 242 241 242 243 243 243 244 244 245 246
163 162 166 174 177 179 182 186 189 193 196 197 197 198 200 201 202 203 205 206 209 210 212 215 217 219 219 220 222 224 225 226 226 226 226 227 229 230 230 230 230 229 230 232 235 237 238 237 237 238 239 240 241 242 242 243 244 244 244 245 246 246 247
132 131 142 162 174 177 181 185 188 192 194 194 195 197 199 201 202 203 205 206 209 211 212 214 217 219 220 221 223 224 225 226 226 225 226 227 228 230 230 230 230 229 230 231 233 236 237 237 238 238 238 239 240 241 243 244 246 246 246 246 246 247 247
135 133 135 147 163 172 179 184 189 193 193 192 194 196 197 200 202 204 206 208 210 211 212 214 217 220 221 222 223 225 226 226 226 226 226 227 227 229 230 231 230 230 229 230 232 234 236 237 239 240 239 239 239 241 244 247 248 248 248 247 247 247 247
132 143 142 145 155 165 174 181 187 191 192 191 194 197 199 202 205 207 209 210 211 213 213 214 217 220 223 223 223 225 226 227 228 228 227 227 227 228 229 230 230 230 229 231 232 232 234 237 239 241 240 239 239 242 245 249 251 250 249 249 248 247 247
98 127 138 144 150 156 163 170 174 181 188 192 197 200 201 204 208 211 213 214 214 215 215 216 217 220 223 224 224 225 227 228 229 230 230 229 228 227 228 229 230 230 230 231 231 231 233 236 238 240 241 240 240 243 247 249 251 252 251 251 250 249 248
72 107 130 141 150 157 164 168 168 174 183 190 194 199 202 205 210 213 215 216 217 217 218 219 219 220 223 225 225 225 226 227 229 231 232 232 230 228 228 229 230 231 230 230 230 232 234 236 237 239 241 242 242 243 246 248 250 251 252 252 252 251 250
72 93 107 116 130 145 162 171 168 168 175 180 185 193 200 206 212 215 217 218 218 219 220 221 221 222 224 226 227 226 226 227 228 230 231 232 231 231 230 230 230 231 231 230 231 233 234 236 237 239 241 242 242 243 244 247 248 250 251 252 252 251 250
76 88 95 100 111 122 139 156 163 167 174 179 183 189 198 206 211 215 219 221 221 221 221 222 223 224 225 226 228 228 227 227 227 229 230 231 232 232 232 232 232 231 231 231 231 231 233 235 237 238 239 240 241 243 245 245 246 248 250 251 251 251 250
69 77 84 87 96 106 120 139 151 163 173 178 182 186 193 201 208 214 219 222 224 223 223 225 225 226 226 227 229 230 230 229 227 227 229 231 232 234 233 233 234 233 232 232 232 232 233 234 236 237 238 239 240 243 245 246 246 247 248 249 250 251 252
61 60 61 61 71 80 90 108 124 147 171 186 196 196 194 194 199 210 217 222 227 226 226 227 228 228 228 229 230 231 231 231 229 228 228 230 232 234 234 235 235 235 234 234 234 235 234 234 235 236 238 239 240 242 244 246 247 248 248 249 249 251 253
50 46 41 40 46 52 57 66 65 80 118 144 204 211 205 200 199 204 212 219 224 228 230 231 230 230 231 230 231 232 232 233 231 229 229 229 230 233 235 236 236 235 235 236 236 236 236 235 236 237 238 240 241 242 244 245 247 249 249 250 250 250 253
57 58 51 41 35 32 22 10 15 38 75 89 83 248 230 221 215 213 215 218 223 228 234 237 235 234 233 232 232 232 232 233 232 230 230 230 230 232 234 236 236 236 236 236 236 237 237 237 237 238 239 241 242 243 245 246 249 250 251 252 253 253 254
67 67 56 37 22 20 15 5 6 27 73 120 171 180 239 250 236 227 224 224 225 228 234 238 237 236 234 233 233 232 232 233 232 229 229 229 229 230 232 235 237 237 237 237 237 238 238 238 238 238 239 241 242 244 247 248 250 252 253 253 254 253 253
54 56 51 30 10 18 22 7 359 353 329 285 196 182 212 245 253 244 232 229 230 231 234 235 234 234 233 232 233 233 232 232 231 229 227 227 228 229 231 234 236 237 237 237 237 237 237 238 239 239 239 239 240 243 246 249 253 255 255 255 255 254 254
41 44 45 21 6 27 36 13 1 350 336 321 209 201 213 225 234 241 233 227 226 227 228 230 229 229 228 228 231 232 231 230 229 228 225 225 227 228 231 233 235 236 237 236 236 236 236 237 238 238 237 237 237 238 240 244 249 251 252 253 254 255 256
34 39 34 9 356 5 35 32 16 334 315 341 183 191 193 197 204 211 217 217 215 213 211 212 217 220 221 222 224 227 228 227 226 225 224 224 226 228 230 231 232 233 234 234 233 233 234 235 235 235 235 235 233 232 233 236 240 242 243 245 247 249 252
21 20 15 1 351 343 323 8 9 322 285 279 183 182 183 182 188 198 206 205 205 208 208 206 209 213 217 218 219 221 223 223 222 221 221 223 226 228 230 230 231 230 230 230 230 231 232 232 232 232 232 231 230 230 230 233 236 238 240 242 245 248 251
11 6 358 347 342 341 330 316 354 334 292 266 225 204 207 185 188 203 204 195 193 199 203 205 208 210 212 212 212 214 216 218 217 215 215 217 220 224 227 229 230 229 227 226 225 225 226 227 227 226 226 225 226 227 227 229 232 236 239 243 246 249 250
356 352 349 339 330 333 334 331 345 333 303 287 263 238 237 239 207 208 206 201 200 196 193 195 199 200 200 202 204 207 209 211 212 209 206 207 210 214 218 222 224 224 223 223 222 221 221 221 222 223 223 222 223 223 224 227 231 234 238 242 245 247 249
336 331 336 333 323 322 324 319 322 321 315 319 308 268 244 243 235 213 199 200 202 199 198 195 191 191 195 198 201 203 202 201 204 204 200 199 201 204 207 210 213 215 217 218 219 220 220 219 219 221 222 220 219 221 223 223 224 226 229 233 238 244 251
328 325 328 325 314 311 311 303 299 302 308 322 325 302 250 246 236 210 188 187 190 195 200 196 189 187 189 192 196 198 196 195 197 199 198 198 200 202 201 201 204 210 214 215 215 217 219 219 219 220 221 218 212 211 214 216 216 220 226 231 241 254 263
323 322 324 319 307 302 302 291 285 292 301 304 299 278 259 251 229 204 184 174 179 189 192 191 190 187 184 184 187 191 193 194 194 194 196 198 201 203 201 196 194 197 203 203 201 202 205 207 208 208 209 211 209 206 209 215 221 230 241 251 262 271 277
315 312 313 306 297 295 294 276 260 270 284 292 261 209 236 237 211 203 191 171 173 183 182 180 185 184 178 178 181 184 189 191 190 190 192 194 197 199 199 194 187 182 184 186 186 187 187 188 194 196 197 204 211 215 219 227 237 249 259 265 270 273 275